Home   Weather   Lakeland   Past weeks

Flag for USA Past Weather in Lakeland, Florida, USA — Yesterday and Last 2 Weeks

Now
70 °F

Fog.


Feels Like: 70 °F
Forecast: 67 / 95 °F
Wind: No wind

Location: Lakeland Regional

Current Time: Apr 28, 2017 at 6:38:37 am

Latest Report: Apr 28, 2017 at 5:50 am


Visibility: 5 mi

Pressure: 30.00 "Hg

Humidity: 100%

Dew Point: 70 °F

Location of LakelandLocation

Past Weather in Lakeland — Graph

°F

Lakeland Temperature Yesterday

Maximum temperature yesterday: 93 °F (at 4:15 pm)
Minimum temperature yesterday: 63 °F (at 4:55 am)
Average temperature yesterday: 74 °F

High & Low Weather Summary for the Past Weeks

 TemperatureHumidityPressure
High93 °F (Apr 27, 4:15 pm)100% (Apr 17, 5:50 am)30.27 "Hg (Apr 17, 5:50 am)
Low55 °F (Apr 26, 2:15 am)33% (Apr 17, 4:50 pm)29.72 "Hg (Apr 24, 4:50 pm)
Average71 °F71%30.02 "Hg
* Reported Apr 13 5:35 am — Apr 28 5:35 am, Lakeland, Weather by CustomWeather, © 2017

Note: Actual official high and low records may vary slightly from our data, if they occured in-between our weather recording intervals... More about our weather records

Advertising

Lakeland Weather History for the Previous 24 Hours

Scroll right to see more
 ConditionsComfort  
Time TempWeatherWind HumidityBarometerVisibility
5:35 am
Fri, Apr 28
68 °FClear.No wind100%30.00 "Hg7 mi
5:15 am68 °FClear.No wind100%30.00 "Hg7 mi
4:55 am70 °FClear.No wind94%30.00 "Hg7 mi
4:35 am70 °FClear.No wind94%29.99 "Hg7 mi
4:15 am70 °FClear.No wind94%29.99 "Hg7 mi
3:55 am68 °FClear.3 mph100%29.99 "Hg7 mi
3:15 am70 °FClear.No wind94%29.99 "Hg7 mi
2:55 am70 °FClear.No wind100%29.98 "Hg7 mi
2:35 am70 °FFog.5 mph100%29.98 "Hg5 mi
2:15 am70 °FClear.7 mph100%29.99 "Hg7 mi
1:55 am70 °FClear.No wind100%29.99 "Hg7 mi
1:35 am70 °FClear.No wind100%29.99 "Hg7 mi
1:15 am70 °FClear.No wind94%29.98 "Hg7 mi
12:55 am72 °FClear.No wind94%29.98 "Hg7 mi
12:35 am73 °FPassing clouds.No wind94%29.98 "Hg10 mi
12:15 am73 °FPassing clouds.No wind94%29.98 "Hg10 mi
11:55 pm
Thu, Apr 27
73 °FPassing clouds.No wind89%29.98 "Hg10 mi
11:35 pm73 °FClear.No wind89%29.98 "Hg10 mi
11:15 pm75 °FClear.No wind83%29.98 "Hg10 mi
10:55 pm75 °FClear.No wind83%29.97 "Hg10 mi
10:35 pm73 °FClear.3 mph89%29.96 "Hg10 mi
10:15 pm75 °FClear.5 mph83%29.96 "Hg10 mi
9:50 pm79 °FClear.5 mph74%29.95 "Hg10 mi
8:50 pm81 °FClear.6 mph70%29.91 "Hg10 mi
7:50 pm84 °FSunny.12 mph62%29.91 "Hg10 mi
6:50 pm90 °FSunny.10 mph52%29.89 "Hg10 mi
5:50 pm93 °FPassing clouds.12 mph34%29.87 "Hg10 mi
4:50 pm93 °FPassing clouds.13 mph34%29.87 "Hg10 mi
4:15 pm93 °FPassing clouds.12 mph36%29.88 "Hg10 mi
3:50 pm91 °FPassing clouds.12 mph38%29.89 "Hg10 mi
2:50 pm91 °FScattered clouds.10 mph38%29.92 "Hg10 mi
1:50 pm90 °FScattered clouds.7 mph43%29.94 "Hg10 mi
12:50 pm88 °FScattered clouds.10 mph49%29.97 "Hg10 mi
11:50 am84 °FPartly sunny.No wind58%29.98 "Hg10 mi
10:50 am81 °FScattered clouds.7 mph70%29.98 "Hg10 mi
9:50 am75 °FScattered clouds.7 mph89%29.98 "Hg10 mi
9:10 am73 °FScattered clouds.7 mph94%29.97 "Hg7 mi
8:50 am72 °FFog.7 mph100%29.97 "Hg4 mi
7:50 am68 °FFog.No wind100%29.94 "Hg3 mi
6:50 am66 °FFog.No wind100%29.92 "Hg4 mi
Weather by CustomWeather, © 2017

See weather overviewHow to use our weather pages